Regional Weather Roundup
Issued by NWS

Home | Current Version | Previous Version | Graphics & Text | Print | Product List | Glossary On
Versions: 1 2 3 4 5 6 7 8 9 10 11 12 13 14 15 16 17 18 19 20 21 22 23 24 25 26 27 28 29 30 31 32 33 34 35 36 37 38 39 40 41 42 43 44 45 46 47 48 49 50
000
ASUS43 KLMK 290010
RWRKY
KENTUCKY REGIONAL WEATHER ROUNDUP
NATIONAL WEATHER SERVICE LOUISVILLE KY
800 PM EDT WED JUN 28 2017

NOTE "FAIR" INDICATES FEW OR NO CLOUDS BELOW 12,000 FEET
WITH NO SIGNIFICANT WEATHER AND/OR OBSTRUCTIONS TO VISIBILITY.

KYZ001>023-026-027-061>063-070>075-290100-
WESTERN AND SOUTH CENTRAL KENTUCKY

CITY           SKY/WX    TMP DP  RH WIND       PRES   REMARKS
PADUCAH        MOSUNNY   83  62  49 VRB6      29.95F
HENDERSON      CLOUDY    80  65  59 S6        29.98S
OWENSBORO      SUNNY     81  61  50 SE9       29.99F
HOPKINSVILLE   SUNNY     83  63  51 S9        30.01S
BOWLING GREEN  CLOUDY    81  61  50 SE6       30.04R
GLASGOW        SUNNY     80  55  42 S3        30.05S
$$

KYZ024-025-028>034-038-045-046-053-290100-
NORTH CENTRAL KENTUCKY

CITY           SKY/WX    TMP DP  RH WIND       PRES   REMARKS
LOUISVILLE/SDF CLOUDY    81  55  40 S12       30.02S
LOUISVILLE/LOU CLOUDY    81  55  40 S7        30.03S
FORT KNOX      CLOUDY    78  57  47 S7        30.02F
$$

KYZ035>037-039>044-047>052-055>060-089>105-290100-
NORTHEAST KENTUCKY

CITY           SKY/WX    TMP DP  RH WIND       PRES   REMARKS
LEXINGTON      SUNNY     77  55  46 S7        30.07S
COVINGTON      CLOUDY    76  58  53 S7        30.04R
FRANKFORT      CLOUDY    79  54  41 S10       30.04S
$$

KYZ054-064>069-076>088-106>120-290100-
SOUTHEAST KENTUCKY

CITY           SKY/WX    TMP DP  RH WIND       PRES   REMARKS
JACKSON        CLEAR     77  58  51 CALM      30.09F
LONDON         CLEAR     79  55  43 VRB5      30.09S
SOMERSET       SUNNY     79  52  38 CALM      30.09S
MIDDLESBORO    CLEAR     79  58  49 SW3       30.11R
MONTICELLO     CLEAR     79  64  60 W8        30.09S
$$




USA.gov is the U.S. government's official web portal to all federal, state and local government web resources and services.